Torna al catalogo

COSMOS 2547

GLONASS

AttivoNavigazioneMEO
NORAD 46805·PAYLOAD·🇷🇺 Russia

Lanciato Oct 25, 2020 da Plesetsk Cosmodrome

Loading…

Prossimi Passaggi (prossime 24 ore)

TLE

AggiornatoSource: CelesTrak SupGP

Epoca: Sep 14, 2026, 23:59 UTC

1 46805C 20075A   26257.99979167  .00000000  00000+0  00000+0 0  2571
2 46805  64.6006 189.4808 0008198 235.1421  91.3946  2.13099895    18

Traccia COSMOS 2547 in tempo reale con AllMySat

Download on the App Store